Tracking 30922 objects as of 2-Jul-2025
HD Live streaming from Space Station
objects crossing your sky now

QIANFAN-14

Track QIANFAN-14 now!
10-day predictions
QIANFAN-14 is classified as:


NORAD ID: 60392
Int'l Code: 2024-140P
Perigee: 1,064.6 km
Apogee: 1,087.2 km
Inclination: 89.0 °
Period: 106.6 minutes
Semi major axis: 7446 km
RCS: Unknown
Launch date: August 6, 2024
Source: People's Republic of China (PRC)
Launch site: Taiyaun Space Center, China (TSC)
Your satellite tracking list
Your tracking list is empty




NASA's NSSDC Master Catalog

Two Line Element Set (TLE):
1 60392U 24140P   25182.83609041  .00000101  00000-0  13810-3 0  9998
2 60392  88.9807 316.2723 0015196 327.2603  32.7605 13.50953398 45133
Source of the keplerian elements: AFSPC